Tehran, Iran

1:36 AM +0430 on June 29, 2017 (GMT +0430)
Mehrabad International

Weather History for OIII - May, 2017

Change the Weather History Date:

Friday, May 19, 2017

  Actual Average Record
Temperature  
Mean Temperature 80 °F -  
Max Temperature 90 °F 86 °F 93 °F (2016)
Min Temperature 69 °F 68 °F 55 °F (2001)
Cooling Degree Days 14    
Growing Degree Days 30 (Base 50)    
Moisture  
Dew Point 34 °F    
Average Humidity 18    
Maximum Humidity 35    
Minimum Humidity 5    
Precipitation  
Precipitation 0.00 in 0.01 in - ()
Sea Level Pressure  
Sea Level Pressure 29.97 in    
Wind  
Wind Speed 4 mph ()    
Max Wind Speed 9 mph    
Max Gust Speed -    
Visibility 6.0 miles    
Events Fog    
Averages and records for this station are not official NWS values.
T = Trace of Precipitation, MM = Missing Value Source: Averaged Metar Reports

Daily Weather History Graph

Daily Weather History Graph

Search for Another Location

Airport or City:

Trip Planner

Search our weather history database for the weather conditions in past years. The results will help you decide how hot, cold, wet, or windy it might be!

Date:

Astronomy

May. 19, 2017 Rise Set
Actual Time 5:56 AM +0430 8:05 PM +0430
Civil Twilight 5:28 AM +0430 8:34 PM +0430
Nautical Twilight 4:53 AM +0430 9:09 PM +0430
Astronomical Twilight 4:15 AM +0430 9:47 PM +0430
Moon 1:49 AM +0430 (5/19) 1:01 PM +0430 (5/19)
Length of Visible Light 15h 06m
Length of Day
14h 09m
Waning Gibbous, 47% of the Moon is Illuminated
May 19
Waning Gibbous
May 26
New
Jun 1
First Quarter
Jun 9
Full
Jun 17
Last Quarter

Hourly Weather History & Observations

Time (+0430) Temp. Dew Point Humidity Pressure Visibility Wind Dir Wind Speed Gust Speed Precip Events Conditions
12:00 AM 73.4 °F 41.0 °F 31% 29.98 in - North 4.6 mph - N/A   Clear
12:30 AM 77.0 °F 37.4 °F 24% 30.01 in - SW 4.6 mph - N/A   Clear
1:00 AM 73.4 °F 39.2 °F 29% 30.01 in - Calm Calm - N/A   Clear
1:30 AM 73 °F 40 °F 19% 29.76 in 6 mi NNW 4.5 mph - -  
1:30 AM 73.4 °F 39.2 °F 29% 30.01 in - NNW 4.6 mph - N/A   Clear
2:30 AM 73.4 °F 39.2 °F 29% 29.98 in - North 4.6 mph - N/A   Clear
3:00 AM 71.6 °F 39.2 °F 31% 29.98 in - NNW 4.6 mph - N/A   Clear
3:30 AM 71.6 °F 39.2 °F 31% 29.98 in - North 4.6 mph - N/A   Clear
3:41 AM - - N/A% - 0.9 mi North - - N/A Fog Fog
4:00 AM 71.6 °F 39.2 °F 31% 29.98 in - NNE 4.6 mph - N/A   Clear
4:30 AM 72 °F 38 °F 18% 29.73 in 6 mi North 4.5 mph - -  
4:30 AM 71.6 °F 37.4 °F 29% 29.98 in - North 4.6 mph - N/A   Clear
5:00 AM 71.6 °F 39.2 °F 31% 30.01 in - North 4.6 mph - N/A   Clear
5:30 AM 69.8 °F 41.0 °F 35% 30.01 in - Calm Calm - N/A   Clear
6:00 AM 73.4 °F 39.2 °F 29% 30.01 in - ESE 6.9 mph - N/A   Clear
6:30 AM 71.6 °F 41.0 °F 33% 30.01 in - Calm Calm - N/A   Clear
7:00 AM 71.6 °F 42.8 °F 35% 30.04 in - North 4.6 mph - N/A   Clear
7:30 AM 74 °F 41 °F 19% 29.77 in 6 mi Calm Calm - -  
7:30 AM 73.4 °F 41.0 °F 31% 30.04 in - Calm Calm - N/A   Clear
8:00 AM 78.8 °F 37.4 °F 23% 30.04 in - Calm Calm - N/A   Clear
8:30 AM 80.6 °F 33.8 °F 18% 30.04 in - Calm Calm - N/A   Clear
9:00 AM 82.4 °F 33.8 °F 17% 30.04 in - Calm Calm - N/A   Clear
9:20 AM 82.4 °F 33.8 °F 17% 30.04 in - South 6.9 mph - N/A   Clear
9:30 AM 82.4 °F 33.8 °F 17% 30.04 in - South 6.9 mph - N/A   Clear
9:56 AM 82.4 °F 32.0 °F 16% 30.04 in - SSE 6.9 mph - N/A   Clear
10:00 AM 82.4 °F 32.0 °F 16% 30.04 in - SSE 6.9 mph - N/A   Clear
10:20 AM 82.4 °F 32.0 °F 16% 30.04 in - East 4.6 mph - N/A   Clear
10:30 AM 82.4 °F 32.0 °F 16% 30.04 in - East 4.6 mph - N/A   Clear
11:00 AM 84.2 °F 28.4 °F 13% 30.06 in - SSE 6.9 mph - N/A   Clear
11:30 AM 86.0 °F 30.2 °F 13% 30.04 in - ESE 9.2 mph - N/A   Clear
12:00 PM 86.0 °F 32.0 °F 14% 30.04 in - SSE 6.9 mph - N/A   Clear
12:28 PM 86.0 °F 32.0 °F 14% 30.04 in - SSW 6.9 mph - N/A   Clear
12:30 PM 86.0 °F 32.0 °F 14% 30.04 in - SSW 6.9 mph - N/A   Clear
1:00 PM 87.8 °F 30.2 °F 13% 30.01 in - Calm Calm - N/A   Clear
1:22 PM 87.8 °F 30.2 °F 13% 30.01 in 6.2 mi NNE 4.6 mph - N/A   Partly Cloudy
1:30 PM 87 °F 31 °F 6% 29.75 in 6 mi NNE 4.5 mph - -   Scattered Clouds
1:30 PM 87.8 °F 30.2 °F 13% 30.01 in 6.2 mi NNE 4.6 mph - N/A   Partly Cloudy
1:50 PM 87.8 °F 32.0 °F 14% 30.01 in 6.2 mi WSW 9.2 mph - N/A   Partly Cloudy
2:00 PM 87.8 °F 32.0 °F 14% 30.01 in 6.2 mi WSW 9.2 mph - N/A   Partly Cloudy
2:30 PM 89.6 °F 32.0 °F 13% 30.01 in 6.2 mi WSW 9.2 mph - N/A   Partly Cloudy
3:00 PM 87.8 °F 32.0 °F 14% 30.01 in 6.2 mi WSW 9.2 mph - N/A   Partly Cloudy
3:30 PM 89.6 °F 32.0 °F 13% 29.98 in 6.2 mi WSW 9.2 mph - N/A   Partly Cloudy
4:00 PM 89.6 °F 32.0 °F 13% 29.98 in 6.2 mi WSW 9.2 mph - N/A   Partly Cloudy
4:25 PM 89.6 °F 32.0 °F 13% 29.98 in 6.2 mi South 6.9 mph - N/A   Partly Cloudy
4:30 PM 90 °F 32 °F 6% 29.70 in 6 mi South 6.7 mph - -   Scattered Clouds
4:30 PM 89.6 °F 32.0 °F 13% 29.98 in 6.2 mi South 6.9 mph - N/A   Partly Cloudy
5:00 PM 91.4 °F 33.8 °F 13% 29.95 in 6.2 mi South 6.9 mph - N/A   Partly Cloudy
5:21 PM 89.6 °F 32.0 °F 13% 29.95 in 6.2 mi SSW 9.2 mph - N/A   Partly Cloudy
5:30 PM 89.6 °F 32.0 °F 13% 29.95 in 6.2 mi SSW 9.2 mph - N/A   Partly Cloudy
6:00 PM 89.6 °F 32.0 °F 13% 29.95 in 6.2 mi South 9.2 mph - N/A   Partly Cloudy
6:26 PM 89.6 °F 30.2 °F 12% 29.95 in 6.2 mi SE 6.9 mph - N/A   Partly Cloudy
6:30 PM 89.6 °F 30.2 °F 12% 29.95 in 6.2 mi SE 6.9 mph - N/A   Partly Cloudy
6:54 PM 89.6 °F 28.4 °F 11% 29.95 in 6.2 mi SW 9.2 mph - N/A   Partly Cloudy
7:00 PM 89.6 °F 28.4 °F 11% 29.95 in 6.2 mi SW 9.2 mph - N/A   Partly Cloudy
7:27 PM 89.6 °F 28.4 °F 11% 29.95 in 6.2 mi South 4.6 mph - N/A   Partly Cloudy
7:30 PM 89 °F 28 °F 5% 29.67 in 6 mi South 4.5 mph - -   Scattered Clouds
7:30 PM 89.6 °F 28.4 °F 11% 29.95 in 6.2 mi South 4.6 mph - N/A   Partly Cloudy
8:00 PM 87.8 °F 28.4 °F 12% 29.95 in 6.2 mi SW 4.6 mph - N/A   Partly Cloudy
8:30 PM 87.8 °F 28.4 °F 12% 29.95 in - SSW 4.6 mph - N/A   Clear
9:00 PM 84.2 °F 33.8 °F 16% 29.95 in - Calm Calm - N/A   Clear
9:30 PM 82.4 °F 35.6 °F 19% 29.98 in - Calm Calm - N/A   Clear
10:00 PM 82.4 °F 35.6 °F 19% 29.98 in - Calm Calm - N/A   Clear
10:30 PM 80 °F 37 °F 12% 29.70 in 6 mi NNW 4.5 mph - -  
10:30 PM 80.6 °F 37.4 °F 21% 29.98 in - NNW 4.6 mph - N/A   Clear
11:00 PM 78.8 °F 37.4 °F 23% 29.98 in - NNW 4.6 mph - N/A   Clear
11:30 PM 78.8 °F 35.6 °F 21% 29.98 in - North 4.6 mph - N/A   Clear